Flag for Germany Weather past 2 weeks in Dresden, Saxony, Germany

Now
66 °F

Sunny.


Feels Like: 66 °F
Forecast: 57 / 81 °F
Wind: 6 mph from North

Location: Dresden-Klotzsche

Current Time: Jun 30, 2015 at 10:44:17 PM

Latest Report: Jun 30, 2015 at 10:20 PM


Visibility: 10 mi

Pressure: 30.18 "Hg

Humidity: 60%

Dew point: 52 °F

Location of DresdenLocation

Historic Weather in Dresden — Graph

°F

Dresden temperature yesterday

Maximum temperature yesterday: 77 °F (at 4:50 PM)
Minimum temperature yesterday: 55 °F (at 3:20 AM)
Average temperature yesterday: 66 °F

Past Weeks' High & Low Weather Summary

 TemperatureHumidityPressure
High77 °F (Jun 29, 4:50 PM)100% (Jun 18, 10:20 AM)30.24 "Hg (Jun 18, 10:20 AM)
Low46 °F (Jun 16, 2:50 AM)36% (Jun 30, 4:50 PM)29.65 "Hg (Jun 23, 12:50 AM)
Average59 °F73%30.05 "Hg
* Reported Jun 15 9:20 PM — Jun 30 9:20 PM, Dresden, Weather by CustomWeather, © 2015

Note: Actual official high and low records may vary slightly from our data, if they occured in-between our weather recording intervals... More about our weather records

Advertising

Dresden weather history for previous 24 hours

 ConditionsComfort  
Time TempWeatherWind HumidityBarometerVisibility
9:20 PM
Tue, Jun 30
70 °FSunny.3 mph53%30.15 "Hg10 mi
8:50 PM72 °FSunny.3 mph50%30.15 "Hg10 mi
8:20 PM73 °FSunny.5 mph47%30.15 "Hg10 mi
7:50 PM75 °FSunny.6 mph44%30.15 "Hg10 mi
6:50 PM77 °FSunny.9 mph39%30.15 "Hg10 mi
6:20 PM77 °FPassing clouds.8 mph42%30.15 "HgN/A
5:50 PM77 °FPassing clouds.7 mph39%30.15 "HgN/A
4:50 PM77 °FPassing clouds.6 mph36%30.15 "HgN/A
4:20 PM77 °FPassing clouds.7 mph42%30.15 "HgN/A
3:50 PM77 °FSunny.6 mph44%30.15 "Hg10 mi
2:50 PM77 °FSunny.6 mph44%30.15 "Hg10 mi
2:20 PM73 °FPassing clouds.7 mph50%30.15 "HgN/A
1:50 PM73 °FScattered clouds.6 mph47%30.15 "HgN/A
1:20 PM75 °FScattered clouds.3 mph47%30.18 "HgN/A
12:50 PM73 °FScattered clouds.6 mph50%30.18 "HgN/A
12:20 PM73 °FScattered clouds.8 mph53%30.18 "HgN/A
11:50 AM72 °FPartly sunny.7 mph57%30.18 "HgN/A
11:20 AM72 °FBroken clouds.7 mph57%30.18 "HgN/A
10:50 AM70 °FBroken clouds.7 mph60%30.18 "HgN/A
10:20 AM72 °FBroken clouds.8 mph57%30.18 "HgN/A
9:50 AM68 °FBroken clouds.6 mph69%30.18 "HgN/A
9:20 AM66 °FPassing clouds.6 mph73%30.18 "HgN/A
8:50 AM66 °FPassing clouds.6 mph73%30.18 "HgN/A
8:20 AM64 °FPassing clouds.5 mph73%30.15 "HgN/A
7:50 AM63 °FPassing clouds.6 mph83%30.15 "HgN/A
7:20 AM63 °FPassing clouds.6 mph83%30.15 "HgN/A
6:50 AM61 °FPassing clouds.3 mph83%30.15 "HgN/A
6:20 AM61 °FSunny.3 mph83%30.15 "Hg10 mi
5:50 AM59 °FClear.5 mph88%30.12 "Hg10 mi
5:20 AM59 °FClear.5 mph88%30.12 "Hg10 mi
4:50 AM59 °FClear.5 mph88%30.12 "Hg10 mi
4:20 AM59 °FClear.6 mph82%30.12 "Hg10 mi
3:50 AM63 °FClear.2 mph77%30.12 "Hg10 mi
3:20 AM61 °FClear.5 mph77%30.12 "Hg10 mi
2:50 AM61 °FClear.7 mph77%30.12 "Hg10 mi
2:20 AM63 °FClear.7 mph73%30.12 "Hg10 mi
1:50 AM63 °FClear.7 mph73%30.12 "Hg10 mi
1:20 AM63 °FClear.7 mph73%30.12 "Hg10 mi
12:50 AM63 °FClear.7 mph73%30.12 "Hg10 mi
12:20 AM64 °FClear.8 mph73%30.15 "Hg10 mi
11:20 PM
Mon, Jun 29
64 °FClear.6 mph68%30.15 "Hg10 mi
10:50 PM68 °FClear.6 mph60%30.15 "Hg10 mi
10:20 PM70 °FSunny.5 mph57%30.12 "Hg10 mi
Weather by CustomWeather, © 2015

See weather overviewHow to use our weather pages